Terminal Aerodrome Forecast
Issued by NWS Sioux Falls, SD

Home | Current Version | Previous Version | Graphics & Text | Print | Product List | Glossary Off
Versions: 1 2 3 4 5 6 7 8 9 10 11 12 13 14 15 16 17 18 19 20 21 22 23 24 25 26 27 28 29 30 31 32 33 34 35 36 37 38 39 40

541
FTUS43 KFSD 241605 AAB
TAFSUX
TAF AMD
KSUX 241605Z 2416/2512 16013G22KT P6SM BKN100
     FM242000 17012G20KT P6SM SHRA VCTS OVC035CB
     FM250000 18007KT P6SM BKN100
     FM250500 25006KT P6SM BKN070
     FM250700 33007KT P6SM SKC=

USA.gov is the U.S. government's official web portal to all federal, state and local government web resources and services.